Regional Weather Roundup
Issued by NWS Sioux Falls, SD

Home | Current Version | Previous Version | Graphics & Text | Print | Product List | Glossary Off
Versions: 1 2 3 4 5 6 7 8 9 10 11 12 13 14 15 16 17 18 19 20 21 22 23 24 25 26 27 28 29 30 31 32 33 34 35 36 37 38 39 40 41 42 43 44 45 46 47 48 49 50

000
ASUS43 KFSD 281402
RWRFSD

WEATHER ROUNDUP FOR SE SOUTH DAKOTA/SW MINNESOTA/NW IOWA
NATIONAL WEATHER SERVICE SIOUX FALLS SD
900 AM CDT SAT MAR 28 2015

NOTE: "FAIR" INDICATES FEW OR NO CLOUDS BELOW 12,000 FEET WITH NO
SIGNIFICANT WEATHER AND OR OBSTRUCTIONS TO VISIBILITY.


SDZ038>040-050-052>070-281500-
SOUTHEAST SOUTH DAKOTA

CITY           SKY/WX    TMP DP  RH WIND       PRES   REMARKS
CHAMBERLAIN    NOT AVBL
HURON          SUNNY     31  25  78 SE12      30.08S WCI  22
MADISON        FAIR      28  28 100 S15       30.10S WCI  17
MITCHELL       SUNNY     31  25  78 SE15G22   30.10R WCI  20
SIOUX FALLS    MOSUNNY   32  26  78 SE10      30.13R WCI  24
WINNER         FAIR      38  31  76 E5        29.99S
YANKTON        SUNNY     30  25  80 SE10      30.13R WCI  21
$$

MNZ071-072-080-081-089-090-097-098-281500-
SOUTHWEST MINNESOTA

CITY           SKY/WX    TMP DP  RH WIND       PRES   REMARKS
FAIRMONT       CLOUDY    28  19  69 SE10      30.20R WCI  19
JACKSON        CLOUDY    32  25  74 SE8       30.18S WCI  25
LUVERNE        SUNNY     32  28  86 SE10      30.15R WCI  24
MARSHALL       CLOUDY    28  23  80 S10       30.17S WCI  19
MONTEVIDEO     CLOUDY    30  27  86 S9        30.18S WCI  22
PIPESTONE      SUNNY     28  27  93 S9        30.13R WCI  20
REDWOOD FALLS  CLOUDY    30  25  81 SE10      30.20R WCI  21
TRACY          CLOUDY    31  28  89 SE8       30.17R WCI  23
WINDOM         CLOUDY    30  25  80 SE7       30.18R WCI  23
WORTHINGTON    CLOUDY    28  23  80 SE8       30.17R WCI  20
$$

IAZ001>003-012>014-020>022-031-032-NEZ013-014-SDZ071-281500-
NORTHWEST IOWA

CITY           SKY/WX    TMP DP  RH WIND       PRES   REMARKS
DENISON        CLOUDY    32  28  86 SE8       30.15S WCI  25
ESTHERVILLE    CLOUDY    30  22  72 SE9       30.19R WCI  22
LE MARS        SUNNY     32  28  86 SE10      30.16R WCI  24
ORANGE CITY    SUNNY     34  27  75 SE9       30.15R WCI  26
SHELDON        SUNNY     32  28  86 SE13      30.15R WCI  22
SIOUX CITY     SUNNY     34  27  75 SE13      30.16R WCI  25
SPENCER        MOSUNNY   30  24  78 E7        30.18R WCI  23
STORM LAKE     CLOUDY    32  27  80 SE10      30.17S WCI  24
$$

ABBREVIATIONS USED IN REMARKS
   TC - TEMPERATURE IN CELSIUS
  WCI - WIND CHILL INDEX
   HX - HEAT INDEX
  VSB - VISIBILITY




USA.gov is the U.S. government's official web portal to all federal, state and local government web resources and services.